Simultaneous Nadir Overpasses (SNOs) Predictions

Prediction of SNOs between METOP-A and NOAA-19 Satellite Orbit:

Table of predicted SNOs for the next 14.0 days since TLE Epoch: 6/21/2019
Index Date (METOP-A) Time (METOP-A) Lat,Lon (METOP-A) SZA (METOP-A ) Date (NOAA-19) Time (NOAA-19) Lat,Lon (NOAA-19) SZA (NOAA-19 ) Distance(km) Time Diff (sec)
1 06/27/2019 02:26:16 -79.76, -24.32 123.41 06/27/2019 02:25:07 -79.74, -24.36 123.44 2.73 69
2 06/27/2019 03:16:57 79.75, 142.89 56.58 06/27/2019 03:16:02 79.73, 142.97 56.56 2.35 55
3 06/27/2019 04:07:38 -79.75, -49.77 123.42 06/27/2019 04:07:08 -79.74, -49.92 123.44 3.00 30
4 06/27/2019 04:58:19 79.73, 117.44 56.56 06/27/2019 04:58:03 79.74, 117.42 56.56 0.48 16
5 06/27/2019 05:49:00 -79.74, -75.22 123.44 06/27/2019 05:49:08 -79.72, -75.17 123.45 2.01 8
6 06/27/2019 06:39:41 79.72, 91.99 56.55 06/27/2019 06:40:04 79.74, 91.87 56.57 3.29 23
7 06/27/2019 07:30:22 -79.72,-100.66 123.45 06/27/2019 07:31:09 -79.72,-100.72 123.44 1.25 47
8 06/27/2019 08:21:03 79.71, 66.55 56.54 06/27/2019 08:22:04 79.72, 66.61 56.56 1.64 61




NCC Satellite Simultaneous Nadir Overpasses (SNOs) Prediction Service
